EW9442 Weather Reports


time (UTC)temp
C
wind
direction
speed
KPH
gust
KPH
rain 1hr
cm
rain 24hr
cm
rain mn
cm
humidity
%
barometer
mb
20260505170022 25 259 0.0 0.0 0.00 0.00 0.00 77 1006.1
20260505164531 25 308 0.0 0.0 0.00 0.00 0.00 78 1006.2
20260505163022 25 264 0.0 0.0 0.00 0.00 0.00 79 1006.2
20260505161514 24 355 0.0 0.0 0.00 0.00 0.00 79 1006.2
20260505153007 23 286 0.0 0.0 0.00 0.00 0.00 80 1006.2
20260505151504 23 157 0.0 0.0 0.00 0.00 0.00 81 1006.1
20260505124542 21 30 0.0 0.0 0.00 0.00 0.00 85 1005.5
20260505123103 21 347 0.0 0.0 0.00 0.00 0.00 85 1005.5
20260505121540 21 286 0.0 0.0 0.00 0.00 0.00 85 1005.6
20260505120047 21 290 0.0 0.0 0.00 0.00 0.00 85 1005.5
20260505114548 21 350 0.0 0.0 0.00 0.00 0.00 85 1005.5
20260505113036 21 300 0.0 0.0 0.00 0.00 0.00 85 1005.2
20260505111535 21 13 0.0 0.0 0.00 0.00 0.00 85 1005.2
20260505101537 21 240 0.0 0.0 0.00 0.00 0.00 84 1005.7
20260505100033 21 350 0.0 0.0 0.00 0.00 0.00 83 1005.7
20260505094530 21 71 0.0 0.0 0.00 0.00 0.00 83 1005.6
20260505093034 21 20 0.0 0.0 0.00 0.00 0.00 83 1005.5
20260505091539 21 265 0.0 0.0 0.00 0.00 0.00 83 1005.4
20260505090043 21 286 0.0 0.0 0.00 0.00 0.00 82 1005.3
20260505084527 21 295 0.0 0.0 0.00 0.00 0.00 82 1005.4
20260505083020 21 5 0.0 4.8 0.00 0.00 0.00 82 1005.6
20260505081525 21 17 0.0 0.0 0.00 0.00 0.00 83 1005.6
20260505080038 21 38 0.0 1.6 0.00 0.00 0.00 83 1005.7
20260505074514 21 257 0.0 4.8 0.00 0.00 0.00 83 1006.0
20260505073127 21 132 0.0 0.0 0.00 0.00 0.00 83 1006.4
20260505071512 21 11 0.0 0.0 0.00 0.00 0.00 82 1006.5
20260505070013 21 13 0.0 0.0 0.00 0.00 0.00 82 1006.6
20260505064507 21 16 0.0 0.0 0.00 0.00 0.00 81 1006.9
20260505063006 21 32 0.0 0.0 0.00 0.00 0.00 81 1007.0
20260505061509 21 290 0.0 0.0 0.00 0.00 0.00 80 1007.0
20260505060002 21 333 0.0 0.0 0.00 0.00 0.00 79 1007.2
20260505054501 22 36 0.0 0.0 0.00 0.00 0.00 79 1007.3
20260505053106 22 329 0.0 0.0 0.00 0.00 0.00 78 1007.3
20260505051556 22 14 0.0 0.0 0.00 0.00 0.00 78 1007.2
20260505050111 22 34 0.0 0.0 0.00 0.00 0.00 77 1007.1
20260505041548 22 24 0.0 0.0 0.00 0.00 0.00 76 1007.4
20260505040034 22 55 0.0 0.0 0.00 0.00 0.00 75 1007.2
20260505034532 22 22 0.0 0.0 0.00 0.00 0.00 75 1007.2
20260505033032 22 281 0.0 0.0 0.00 0.00 0.00 74 1007.3
20260505031540 23 13 0.0 0.0 0.00 0.00 0.00 74 1007.2
20260505030036 23 322 0.0 0.0 0.00 0.00 0.00 74 1007.3
20260505024530 23 349 0.0 0.0 0.00 0.00 0.00 73 1007.0
20260505023039 23 355 0.0 0.0 0.00 0.00 0.00 72 1007.0
20260505021529 23 11 0.0 0.0 0.00 0.00 0.00 72 1006.9
20260505020029 23 41 0.0 0.0 0.00 0.00 0.00 71 1006.9
20260505014527 23 13 0.0 0.0 0.00 0.00 0.00 71 1007.0
20260505013026 23 15 0.0 0.0 0.00 0.00 0.00 70 1006.9
20260505011530 23 5 0.0 0.0 0.00 0.00 0.00 69 1006.9
20260505010025 24 335 0.0 0.0 0.00 0.00 0.00 69 1007.1
20260505004533 24 252 0.0 0.0 0.00 0.00 0.00 67 1007.1
20260505003023 25 296 0.0 0.0 0.00 0.00 0.00 67 1007.0
20260505001522 25 344 0.0 0.0 0.00 0.00 0.00 66 1007.1
20260505000028 25 330 0.0 0.0 0.00 0.00 0.00 65 1007.2
20260504234520 25 279 0.0 0.0 0.00 0.00 0.00 64 1007.2
20260504233020 26 317 0.0 0.0 0.00 0.00 0.00 63 1007.3
20260504231517 26 340 0.0 0.0 0.00 0.00 0.00 63 1007.6
20260504230018 26 342 0.0 0.0 0.00 0.00 0.00 61 1007.7
20260504224515 27 263 0.0 0.0 0.00 0.00 0.00 60 1007.9
20260504223015 27 65 0.0 0.0 0.00 0.00 0.00 60 1007.8
20260504221518 27 246 0.0 0.0 0.00 0.00 0.00 60 1007.9
20260504220011 27 112 0.0 0.0 0.00 0.00 0.00 57 1008.1
20260504214512 28 350 0.0 0.0 0.00 0.00 0.00 57 1008.4
20260504213020 28 22 0.0 0.0 0.00 0.00 0.00 57 1008.5
20260504211511 27 283 0.0 0.0 0.00 0.00 0.00 55 1008.6
20260504210002 27 355 0.0 0.0 0.00 0.00 0.00 56 1009.2
20260504204603 27 12 0.0 0.0 0.00 0.00 0.00 56 1009.3
20260504203119 27 247 0.0 0.0 0.00 0.00 0.00 57 1010.1
20260504201554 27 5 0.0 0.0 0.00 0.00 0.00 55 1010.2
20260504200051 27 214 0.0 0.0 0.00 0.00 0.00 54 1010.3
20260504194558 27 41 0.0 0.0 0.00 0.00 0.00 53 1010.5
20260504193051 27 341 0.0 0.0 0.00 0.00 0.00 54 1010.8
20260504191539 27 316 0.0 0.0 0.00 0.00 0.00 52 1011.2
20260504190036 27 207 0.0 0.0 0.00 0.00 0.00 52 1011.4
20260504184534 26 232 0.0 0.0 0.00 0.00 0.00 53 1011.5
20260504183033 26 179 0.0 0.0 0.00 0.00 0.00 54 1011.5
20260504181531 26 351 0.0 0.0 0.00 0.00 0.00 54 1011.9
20260504180024 26 205 0.0 0.0 0.00 0.00 0.00 53 1012.2
20260504174521 26 160 0.0 0.0 0.00 0.00 0.00 53 1012.5
20260504173032 25 242 0.0 0.0 0.00 0.00 0.00 52 1012.8
20260504171522 25 301 0.0 0.0 0.00 0.00 0.00 55 1012.9